Torna al catalogo

STARLINK-3822

AttivoComunicazioniVLEO
NORAD 52287·PAYLOAD·🇺🇸 United States

Lanciato Apr 21, 2022 da Cape Canaveral Space Force Station

Loading…

Prossimi Passaggi (prossime 24 ore)

TLE

AggiornatoSource: CelesTrak SupGP

Epoca: Sep 14, 2026, 20:42 UTC

1 52287C 22041AC  26257.86298611 -.00034735  00000+0 -11168-2 0  2575
2 52287  53.1595 327.7026 0001031  61.8545 272.9190 15.31725353    11

Traccia STARLINK-3822 in tempo reale con AllMySat

Download on the App Store